This is the latest recevied weather packets stored in our database for station/object SP2WPY-13. If no packets are shown the sender has not sent any weather packets the latest 10 day(s).
| Time | Temp. | Humidity | Pressure | Rain* | Wind** | Luminosity | Snow |
|---|---|---|---|---|---|---|---|
| 1777294403 | 8.89° C | 50% | 1025.6 hPa | - | - | - | - |
| 1777294083 | 8.89° C | 51% | 1025.5 hPa | - | - | - | - |
| 1777293809 | 8.89° C | 50% | 1025.5 hPa | - | - | - | - |
| 1777293489 | 9.44° C | 50% | 1025.5 hPa | - | - | - | - |
| 1777293215 | 9.44° C | 51% | 1025.5 hPa | - | - | - | - |
| 1777292895 | 9.44° C | 50% | 1025.5 hPa | - | - | - | - |
| 1777292622 | 9.44° C | 49% | 1025.3 hPa | - | - | - | - |
| 1777292302 | 8.89° C | 49% | 1025.5 hPa | - | - | - | - |
| 1777291983 | 8.89° C | 49% | 1025.3 hPa | - | - | - | - |
| 1777291708 | 8.89° C | 49% | 1025.5 hPa | - | - | - | - |
| 1777291389 | 8.89° C | 47% | 1025.5 hPa | - | - | - | - |
| 1777291114 | 8.89° C | 48% | 1025.5 hPa | - | - | - | - |
| 1777290795 | 9.44° C | 47% | 1025.3 hPa | - | - | - | - |
| 1777290521 | 9.44° C | 47% | 1025.2 hPa | - | - | - | - |
| 1777290201 | 9.44° C | 46% | 1025.2 hPa | - | - | - | - |
| 1777289881 | 10° C | 44% | 1025.2 hPa | - | - | - | - |
| 1777289607 | 9.44° C | 46% | 1025.2 hPa | - | - | - | - |
| 1777289288 | 10° C | 44% | 1025.1 hPa | - | - | - | - |
| 1777289014 | 10° C | 45% | 1025 hPa | - | - | - | - |
| 1777288694 | 10° C | 45% | 1025 hPa | - | - | - | - |
| 1777288421 | 10.56° C | 44% | 1024.9 hPa | - | - | - | - |
| 1777288100 | 10° C | 44% | 1025 hPa | - | - | - | - |
| 1777287781 | 10° C | 38% | 1025 hPa | - | - | - | - |
| 1777287508 | 10.56° C | 36% | 1024.9 hPa | - | - | - | - |
| 1777287187 | 10.56° C | 35% | 1024.9 hPa | - | - | - | - |
* Rain since midnight (hover to see other rain measurements)
** Current wind speed in m/s (hover to see current wind gust speed)